FW6831 Weather Reports


Display with metric or nautical units.
time (UTC)temp
F
wind
direction
speed
MPH
gust
MPH
rain 1hr
in
rain 24hr
in
rain mn
in
humidity
%
barometer
mb
20260902053053 74 39 2.0 10.0 0.00 0.00 0.00 65 1019.2
20260902052545 75 0 3.0 10.0 0.00 0.00 0.00 65 1019.2
20260902052043 75 75 3.0 10.0 0.00 0.00 0.00 65 1019.3
20260902051559 75 64 3.0 9.0 0.00 0.00 0.00 65 1019.4
20260902051043 75 70 3.0 9.0 0.00 0.00 0.00 63 1019.3
20260902050543 76 40 4.0 9.0 0.00 0.00 0.00 63 1019.4
20260902050110 76 351 3.0 8.0 0.00 0.00 0.00 62 1019.4
20260902045542 76 100 3.0 8.0 0.00 0.00 0.00 61 1019.3
20260902045044 76 70 3.0 7.0 0.00 0.00 0.00 60 1019.5
20260902044608 76 89 3.0 10.0 0.00 0.00 0.00 60 1019.6
20260902044045 76 62 5.0 10.0 0.00 0.00 0.00 59 1019.5
20260902043542 77 97 3.0 7.0 0.00 0.00 0.00 59 1019.6
20260902043053 78 34 1.0 11.0 0.00 0.00 0.00 59 1019.7
20260902042542 78 139 4.0 11.0 0.00 0.00 0.00 57 1019.8
20260902042046 80 105 3.0 9.0 0.00 0.00 0.00 54 1019.8
20260902041601 82 84 1.0 6.0 0.00 0.00 0.00 48 1019.8
20260902041044 81 328 1.0 5.0 0.00 0.00 0.00 41 1019.8
20260902040543 81 247 1.0 6.0 0.00 0.00 0.00 40 1019.9
20260902040109 81 294 2.0 6.0 0.00 0.00 0.00 41 1020.0
20260902035542 82 292 1.0 4.0 0.00 0.00 0.00 41 1019.9
20260902035047 83 286 0.0 3.0 0.00 0.00 0.00 40 1020.0
20260902034601 83 113 0.0 2.0 0.00 0.00 0.00 42 1020.1
20260902034042 82 259 1.0 3.0 0.00 0.00 0.00 41 1020.1
20260902033545 81 309 1.0 4.0 0.00 0.00 0.00 44 1020.2
20260902033108 80 224 1.0 6.0 0.00 0.00 0.00 44 1020.2
20260902032544 80 347 2.0 6.0 0.00 0.00 0.00 43 1020.2
20260902032044 80 79 1.0 3.0 0.00 0.00 0.00 43 1020.3
20260902031559 79 84 1.0 5.0 0.00 0.00 0.00 45 1020.5
20260902031045 79 0 1.0 5.0 0.00 0.00 0.00 45 1020.5
20260902030545 80 56 2.0 5.0 0.00 0.00 0.00 43 1020.8
20260902030058 80 22 2.0 5.0 0.00 0.00 0.00 45 1020.8
20260902025545 79 225 0.0 5.0 0.00 0.00 0.00 49 1020.9
20260902025045 77 0 0.0 5.0 0.00 0.00 0.00 50 1020.9
20260902024603 78 332 2.0 6.0 0.00 0.00 0.00 48 1021.0
20260902024048 78 215 1.0 7.0 0.00 0.00 0.00 51 1021.1
20260902023544 77 233 2.0 7.0 0.00 0.00 0.00 51 1021.3
20260902023058 78 186 2.0 5.0 0.00 0.00 0.00 50 1021.4
20260902022544 78 180 1.0 4.0 0.00 0.00 0.00 52 1021.5
20260902022044 79 63 1.0 5.0 0.00 0.00 0.00 52 1021.6
20260902021555 78 58 1.0 5.0 0.00 0.00 0.00 53 1021.8
20260902021044 78 296 2.0 4.0 0.00 0.00 0.00 53 1021.9
20260902020544 77 257 1.0 4.0 0.00 0.00 0.00 56 1022.0
20260902020104 77 105 1.0 3.0 0.00 0.00 0.00 55 1022.1
20260902015544 77 0 1.0 3.0 0.00 0.00 0.00 57 1022.2
20260902015045 77 0 1.0 2.0 0.00 0.00 0.00 57 1022.5
20260902014556 77 160 1.0 4.0 0.00 0.00 0.00 56 1022.5
20260902014043 77 15 1.0 4.0 0.00 0.00 0.00 56 1022.6
20260902013543 77 309 1.0 5.0 0.00 0.00 0.00 57 1022.9
20260902013055 76 338 1.0 5.0 0.00 0.00 0.00 59 1023.0
20260902012545 75 295 3.0 5.0 0.00 0.00 0.00 61 1023.1
20260902012045 76 265 2.0 3.0 0.00 0.00 0.00 60 1023.1
20260902011552 75 348 1.0 4.0 0.00 0.00 0.00 61 1023.3
20260902011044 75 117 1.0 4.0 0.00 0.00 0.00 62 1023.4
20260902010544 75 231 0.0 2.0 0.00 0.00 0.00 62 1023.7
20260902010101 75 240 0.0 4.0 0.00 0.00 0.00 64 1023.7
20260902005541 74 144 1.0 4.0 0.00 0.00 0.00 65 1023.9
20260902005040 74 333 1.0 4.0 0.00 0.00 0.00 66 1023.8
20260902004558 73 105 1.0 4.0 0.00 0.00 0.00 66 1024.0
20260902004043 72 33 1.0 4.0 0.00 0.00 0.00 68 1024.1
20260902003543 72 188 2.0 4.0 0.00 0.00 0.00 69 1024.1
20260902003057 72 188 1.0 4.0 0.00 0.00 0.00 69 1024.2
20260902002544 71 132 1.0 4.0 0.00 0.00 0.00 70 1024.3
20260902002043 71 233 2.0 4.0 0.00 0.00 0.00 69 1024.3
20260902001554 71 0 0.0 4.0 0.00 0.00 0.00 71 1024.5
20260902001045 71 174 1.0 4.0 0.00 0.00 0.00 70 1024.4
20260902000544 70 175 1.0 3.0 0.00 0.00 0.00 70 1024.6
20260902000100 70 164 1.0 3.0 0.00 0.00 0.00 71 1024.7
20260901235544 70 328 1.0 3.0 0.00 0.00 0.00 72 1024.7
20260901235045 69 0 0.0 3.0 0.00 0.00 0.00 75 1024.8
20260901234557 68 0 1.0 3.0 0.00 0.00 0.00 76 1024.9
20260901234044 68 172 1.0 3.0 0.00 0.00 0.00 77 1025.0
20260901233544 68 0 1.0 3.0 0.00 0.00 0.00 77 1025.0
20260901233056 68 73 1.0 3.0 0.00 0.00 0.00 77 1025.1
20260901232544 68 0 0.0 3.0 0.00 0.00 0.00 76 1025.1
20260901232044 69 0 0.0 2.0 0.00 0.00 0.00 76 1025.0
20260901231554 68 0 0.0 1.0 0.00 0.00 0.00 78 1025.2
20260901231043 68 0 0.0 2.0 0.00 0.00 0.00 79 1025.1
20260901230544 67 0 0.0 2.0 0.00 0.00 0.00 81 1025.2
20260901230053 65 264 0.0 2.0 0.00 0.00 0.00 80 1025.2
20260901225545 64 0 0.0 2.0 0.00 0.00 0.00 83 1025.1
20260901225044 64 196 1.0 2.0 0.00 0.00 0.00 81 1025.2
20260901224551 65 0 0.0 2.0 0.00 0.00 0.00 83 1025.3
20260901224044 64 0 0.0 2.0 0.00 0.00 0.00 85 1025.4
20260901223543 63 118 0.0 1.0 0.00 0.00 0.00 84 1025.3
20260901223057 63 185 0.0 1.0 0.00 0.00 0.00 85 1025.3
20260901222543 62 0 0.0 1.0 0.00 0.00 0.00 88 1025.4
20260901222043 61 119 0.0 2.0 0.00 0.00 0.00 87 1025.3
20260901221557 61 106 1.0 3.0 0.00 0.00 0.00 87 1025.4
20260901221139 61 102 0.0 3.0 0.00 0.00 0.00 89 1025.4
20260901220544 61 97 0.0 1.0 0.00 0.00 0.00 88 1025.4
20260901220100 60 0 0.0 1.0 0.00 0.00 0.00 91 1025.6
20260901215543 60 68 0.0 1.0 0.00 0.00 0.00 93 1025.5
20260901215044 58 0 0.0 1.0 0.00 0.00 0.00 95 1025.5
20260901214605 58 0 0.0 1.0 0.00 0.00 0.00 95 1025.5
20260901214044 57 98 0.0 1.0 0.00 0.00 0.00 97 1025.3
20260901213548 57 76 0.0 2.0 0.00 0.00 0.00 97 1025.4
20260901213113 56 0 0.0 2.0 0.00 0.00 0.00 97 1025.1
20260901212544 56 0 0.0 0.0 0.00 0.00 0.00 99 1025.0
20260901212045 56 0 0.0 0.0 0.00 0.00 0.00 99 1024.8
20260901211601 56 0 0.0 0.0 0.00 0.00 0.00 99 1024.8
20260901211048 55 0 0.0 0.0 0.00 0.00 0.00 99 1024.7
20260901210548 53 0 0.0 0.0 0.00 0.00 0.00 98 1024.7
20260901205546 52 0 0.0 1.0 0.00 0.00 0.00 98 1024.5
20260901205046 51 0 0.0 1.0 0.00 0.00 0.00 97 1024.6
20260901204558 50 311 0.0 0.0 0.00 0.00 0.00 97 1024.4
20260901204044 50 311 0.0 0.0 0.00 0.00 0.00 97 1024.4
20260901203544 49 311 0.0 1.0 0.00 0.00 0.00 96 1024.4
20260901203113 49 0 0.0 1.0 0.00 0.00 0.00 96 1024.4
20260901202544 49 311 0.0 1.0 0.00 0.00 0.00 96 1024.3
20260901202044 49 0 0.0 1.0 0.00 0.00 0.00 96 1024.4
20260901201556 49 311 0.0 1.0 0.00 0.00 0.00 96 1024.4
20260901201044 49 0 0.0 1.0 0.00 0.00 0.00 96 1024.4
20260901200543 50 311 0.0 1.0 0.00 0.00 0.00 96 1024.3
20260901200100 50 311 0.0 1.0 0.00 0.00 0.00 96 1024.4
20260901195544 50 0 0.0 1.0 0.00 0.00 0.00 96 1024.4
20260901195047 50 0 0.0 1.0 0.00 0.00 0.00 96 1024.5
20260901194558 50 0 0.0 1.0 0.00 0.00 0.00 97 1024.5
20260901194043 50 0 0.0 0.0 0.00 0.00 0.00 96 1024.4
20260901193545 50 0 0.0 0.0 0.00 0.00 0.00 96 1024.4
20260901193126 50 0 0.0 1.0 0.00 0.00 0.00 96 1024.3
20260901192547 50 0 0.0 1.0 0.00 0.00 0.00 96 1024.4
20260901192048 50 0 0.0 1.0 0.00 0.00 0.00 96 1024.3
20260901191557 50 0 0.0 0.0 0.00 0.00 0.00 96 1024.2
20260901191043 50 0 0.0 0.0 0.00 0.00 0.00 96 1024.1
20260901190544 50 0 0.0 0.0 0.00 0.00 0.00 96 1024.1
20260901190106 51 0 0.0 0.0 0.00 0.00 0.00 96 1024.1
20260901185544 51 0 0.0 1.0 0.00 0.00 0.00 97 1024.0
20260901185044 51 0 0.0 1.0 0.00 0.00 0.00 96 1024.0
20260901184553 51 0 0.0 1.0 0.00 0.00 0.00 96 1024.0
20260901184044 51 309 0.0 1.0 0.00 0.00 0.00 96 1024.0
20260901183543 51 309 0.0 1.0 0.00 0.00 0.00 96 1024.1
20260901183054 51 309 0.0 1.0 0.00 0.00 0.00 96 1024.0
20260901182544 51 309 1.0 1.0 0.00 0.00 0.00 96 1024.0
20260901182044 51 0 0.0 1.0 0.00 0.00 0.00 96 1024.0
20260901181602 51 309 0.0 1.0 0.00 0.00 0.00 96 1023.9
20260901181043 51 309 1.0 1.0 0.00 0.00 0.00 96 1024.0
20260901180544 51 309 0.0 1.0 0.00 0.00 0.00 96 1023.9
20260901180100 51 309 1.0 1.0 0.00 0.00 0.00 95 1023.9
20260901175543 51 309 0.0 1.0 0.00 0.00 0.00 96 1023.9
20260901175044 51 309 0.0 1.0 0.00 0.00 0.00 96 1023.9
20260901174606 51 309 1.0 1.0 0.00 0.00 0.00 96 1023.9
20260901174044 52 309 0.0 1.0 0.00 0.00 0.00 96 1024.0
20260901173542 52 309 0.0 1.0 0.00 0.00 0.00 96 1023.9
20260901173056 52 309 0.0 1.0 0.00 0.00 0.00 96 1023.9
20260901172544 52 0 0.0 1.0 0.00 0.00 0.00 96 1024.1
20260901172044 52 0 0.0 1.0 0.00 0.00 0.00 96 1024.1
20260901171606 52 0 0.0 1.0 0.00 0.00 0.00 95 1024.2
20260901171043 52 309 1.0 1.0 0.00 0.00 0.00 95 1024.3
20260901170543 52 311 1.0 1.0 0.00 0.00 0.00 95 1024.4
20260901170108 52 311 1.0 1.0 0.00 0.00 0.00 95 1024.4
20260901165545 52 311 0.0 1.0 0.00 0.00 0.00 95 1024.4
20260901165043 53 311 1.0 1.0 0.00 0.00 0.00 95 1024.4
20260901164603 53 314 0.0 1.0 0.00 0.00 0.00 95 1024.5
20260901164043 53 315 1.0 1.0 0.00 0.00 0.00 95 1024.6
20260901163543 53 316 0.0 1.0 0.00 0.00 0.00 95 1024.8
20260901163056 53 317 0.0 1.0 0.00 0.00 0.00 95 1024.8
20260901162547 53 316 0.0 1.0 0.00 0.00 0.00 94 1025.0
20260901162043 53 316 1.0 1.0 0.00 0.00 0.00 94 1024.9
20260901161554 53 316 0.0 1.0 0.00 0.00 0.00 94 1024.9
20260901161043 54 330 0.0 0.0 0.00 0.00 0.00 94 1025.0
20260901160544 54 0 0.0 0.0 0.00 0.00 0.00 94 1025.1
20260901160057 54 0 0.0 0.0 0.00 0.00 0.00 94 1025.0
20260901155542 54 0 0.0 0.0 0.00 0.00 0.00 94 1025.0
20260901155043 55 0 0.0 0.0 0.00 0.00 0.00 93 1025.0
20260901154600 55 0 0.0 0.0 0.00 0.00 0.00 93 1025.1
20260901154043 55 0 0.0 1.0 0.00 0.00 0.00 94 1025.2
20260901153547 55 0 0.0 1.0 0.00 0.00 0.00 94 1025.2
20260901153103 55 0 0.0 1.0 0.00 0.00 0.00 94 1025.1
20260901152544 55 0 0.0 0.0 0.00 0.00 0.00 94 1025.1
20260901152043 55 0 0.0 0.0 0.00 0.00 0.00 94 1025.1
20260901151602 55 0 0.0 0.0 0.00 0.00 0.00 93 1025.1
20260901151044 55 0 0.0 0.0 0.00 0.00 0.00 93 1025.1
20260901150544 54 0 0.0 0.0 0.00 0.00 0.00 92 1025.1
20260901150109 55 0 0.0 1.0 0.00 0.00 0.00 92 1025.0
20260901145544 55 0 0.0 1.0 0.00 0.00 0.00 92 1025.0
20260901145044 56 0 0.0 2.0 0.00 0.00 0.00 92 1025.2
20260901144604 56 302 1.0 2.0 0.00 0.00 0.00 93 1025.1
20260901144043 56 272 1.0 2.0 0.00 0.00 0.00 92 1025.1
20260901143543 57 326 1.0 2.0 0.00 0.00 0.00 93 1025.2
20260901143115 57 318 1.0 2.0 0.00 0.00 0.00 93 1025.3
20260901142544 57 324 0.0 2.0 0.00 0.00 0.00 93 1025.3
20260901142044 57 305 0.0 2.0 0.00 0.00 0.00 93 1025.3
20260901141604 57 288 0.0 2.0 0.00 0.00 0.00 93 1025.3
20260901141043 57 313 0.0 1.0 0.00 0.00 0.00 94 1025.4
20260901140544 57 0 0.0 2.0 0.00 0.00 0.00 94 1025.3
20260901140059 56 326 0.0 2.0 0.00 0.00 0.00 94 1025.4
20260901135548 56 0 0.0 1.0 0.00 0.00 0.00 94 1025.5
20260901135044 56 0 0.0 1.0 0.00 0.00 0.00 94 1025.6
20260901134620 56 0 0.0 1.0 0.00 0.00 0.00 94 1025.6
20260901134045 56 312 0.0 2.0 0.00 0.00 0.00 95 1025.6
20260901133546 56 326 0.0 2.0 0.00 0.00 0.00 95 1025.7
20260901133103 55 248 0.0 2.0 0.00 0.00 0.00 95 1025.6
20260901132544 55 300 0.0 2.0 0.00 0.00 0.00 94 1025.5
20260901132044 55 326 1.0 2.0 0.00 0.00 0.00 95 1025.6
20260901131609 55 300 0.0 2.0 0.00 0.00 0.00 94 1025.7
20260901131044 55 315 0.0 2.0 0.00 0.00 0.00 94 1025.9
20260901130544 55 0 0.0 2.0 0.00 0.00 0.00 94 1025.9
20260901130105 55 311 1.0 2.0 0.00 0.00 0.00 94 1026.0
20260901125543 55 309 1.0 1.0 0.00 0.00 0.00 94 1026.1
20260901125045 55 307 1.0 1.0 0.00 0.00 0.00 93 1026.1
20260901124601 56 307 1.0 1.0 0.00 0.00 0.00 93 1026.2
20260901124049 56 311 0.0 1.0 0.00 0.00 0.00 93 1026.2
20260901123545 56 314 0.0 1.0 0.00 0.00 0.00 93 1026.2
20260901123102 56 314 0.0 1.0 0.00 0.00 0.00 93 1026.3
20260901122544 56 0 0.0 0.0 0.00 0.00 0.00 93 1026.3
20260901122047 56 0 0.0 0.0 0.00 0.00 0.00 93 1026.3
20260901121607 56 0 0.0 0.0 0.00 0.00 0.00 93 1026.3
20260901121043 56 0 0.0 1.0 0.00 0.00 0.00 92 1026.3
20260901120543 56 287 0.0 1.0 0.00 0.00 0.00 91 1026.3
20260901120059 57 268 0.0 0.0 0.00 0.00 0.00 91 1026.3
20260901115544 57 0 0.0 0.0 0.00 0.00 0.00 91 1026.2
20260901115042 57 0 0.0 0.0 0.00 0.00 0.00 91 1026.1
20260901114604 57 0 0.0 0.0 0.00 0.00 0.00 90 1026.2
20260901114044 57 0 0.0 1.0 0.00 0.00 0.00 90 1026.3
20260901113543 58 0 0.0 1.0 0.00 0.00 0.00 89 1026.2
20260901113107 58 323 0.0 1.0 0.00 0.00 0.00 90 1026.2
20260901112543 58 0 0.0 1.0 0.00 0.00 0.00 90 1026.2
20260901112045 58 318 0.0 1.0 0.00 0.00 0.00 89 1026.3
20260901111604 59 292 0.0 2.0 0.00 0.00 0.00 90 1026.2
20260901111043 59 281 0.0 2.0 0.00 0.00 0.00 88 1026.2
20260901110543 59 285 0.0 2.0 0.00 0.00 0.00 88 1026.1
20260901110059 60 302 0.0 3.0 0.00 0.00 0.00 88 1026.1
20260901105544 60 311 0.0 4.0 0.00 0.00 0.00 89 1026.0
20260901105044 60 327 0.0 4.0 0.00 0.00 0.00 89 1026.1
20260901104557 59 309 0.0 4.0 0.00 0.00 0.00 90 1026.0
20260901104044 59 0 0.0 1.0 0.00 0.00 0.00 88 1026.0
20260901103543 59 0 0.0 3.0 0.00 0.00 0.00 88 1026.1
20260901103103 60 303 0.0 3.0 0.00 0.00 0.00 88 1026.1
20260901102543 60 0 0.0 3.0 0.00 0.00 0.00 87 1026.1
20260901102045 60 317 0.0 2.0 0.00 0.00 0.00 87 1026.1
20260901101601 60 300 0.0 2.0 0.00 0.00 0.00 86 1026.1
20260901101043 60 55 0.0 2.0 0.00 0.00 0.00 87 1026.1
20260901100543 60 0 0.0 2.0 0.00 0.00 0.00 86 1026.1
20260901095543 60 37 0.0 2.0 0.00 0.00 0.00 87 1026.1
20260901095043 60 321 0.0 2.0 0.00 0.00 0.00 88 1026.0
20260901094556 60 0 0.0 4.0 0.00 0.00 0.00 86 1026.1
20260901094047 60 0 0.0 4.0 0.00 0.00 0.00 86 1026.3
20260901093543 60 0 0.0 1.0 0.00 0.00 0.00 85 1026.1
20260901093054 60 0 0.0 2.0 0.00 0.00 0.00 85 1026.1
20260901092543 60 242 0.0 2.0 0.00 0.00 0.00 84 1026.2
20260901092045 61 0 0.0 2.0 0.00 0.00 0.00 85 1026.1
20260901091601 61 0 0.0 1.0 0.00 0.00 0.00 84 1026.1
20260901091043 61 0 0.0 2.0 0.00 0.00 0.00 83 1026.1
20260901090543 62 0 0.0 2.0 0.00 0.00 0.00 82 1026.0
20260901090055 62 0 0.0 4.0 0.00 0.00 0.00 82 1026.0
20260901085543 62 0 0.0 4.0 0.00 0.00 0.00 82 1025.9
20260901085043 62 0 0.0 2.0 0.00 0.00 0.00 82 1025.9
20260901084559 62 0 0.0 0.0 0.00 0.00 0.00 81 1025.8
20260901084044 62 0 0.0 0.0 0.00 0.00 0.00 80 1025.8
20260901083546 63 0 0.0 1.0 0.00 0.00 0.00 80 1025.7
20260901083058 63 0 0.0 1.0 0.00 0.00 0.00 79 1025.7
20260901082545 63 0 0.0 1.0 0.00 0.00 0.00 79 1025.7
20260901082043 63 0 0.0 0.0 0.00 0.00 0.00 78 1025.6
20260901081559 64 0 0.0 3.0 0.00 0.00 0.00 78 1025.5
20260901081043 64 0 0.0 3.0 0.00 0.00 0.00 77 1025.5
20260901080543 64 0 0.0 4.0 0.00 0.00 0.00 77 1025.4
20260901080107 64 0 0.0 4.0 0.00 0.00 0.00 77 1025.3
20260901075543 64 0 0.0 4.0 0.00 0.00 0.00 76 1025.3
20260901075043 65 0 0.0 3.0 0.00 0.00 0.00 76 1025.3
20260901074609 65 0 0.0 3.0 0.00 0.00 0.00 75 1025.2
20260901074043 65 0 0.0 0.0 0.00 0.00 0.00 74 1025.3
20260901073543 66 0 0.0 0.0 0.00 0.00 0.00 74 1025.2
20260901073052 66 0 0.0 2.0 0.00 0.00 0.00 73 1025.3
20260901072545 66 0 0.0 2.0 0.00 0.00 0.00 73 1025.1
20260901072043 67 0 0.0 3.0 0.00 0.00 0.00 72 1025.1
20260901071601 67 0 0.0 3.0 0.00 0.00 0.00 72 1025.1
20260901071042 67 74 0.0 4.0 0.00 0.00 0.00 71 1025.1
20260901070546 67 40 1.0 4.0 0.00 0.00 0.00 70 1025.1
20260901070057 68 92 2.0 4.0 0.00 0.00 0.00 70 1025.1
20260901065544 68 109 2.0 5.0 0.00 0.00 0.00 70 1025.1
20260901065044 68 105 2.0 5.0 0.00 0.00 0.00 70 1025.1
20260901064559 68 29 1.0 6.0 0.00 0.00 0.00 69 1025.0
20260901064044 69 101 1.0 6.0 0.00 0.00 0.00 69 1025.0
20260901063543 69 75 1.0 6.0 0.00 0.00 0.00 69 1025.0
20260901063051 69 46 2.0 5.0 0.00 0.00 0.00 69 1024.8
20260901062548 69 139 2.0 5.0 0.00 0.00 0.00 69 1024.9
20260901062044 69 352 1.0 5.0 0.00 0.00 0.00 69 1025.0
20260901061607 69 0 1.0 5.0 0.00 0.00 0.00 68 1024.9
20260901061047 69 28 1.0 6.0 0.00 0.00 0.00 69 1024.9
20260901060545 70 68 1.0 6.0 0.00 0.00 0.00 69 1025.0
20260901055543 69 131 0.0 6.0 0.00 0.00 0.00 70 1025.0
20260901055045 69 63 1.0 6.0 0.00 0.00 0.00 70 1025.1
20260901054555 70 20 2.0 5.0 0.00 0.00 0.00 70 1025.2
20260901054044 70 0 3.0 5.0 0.00 0.00 0.00 69 1025.1
20260901053544 70 165 2.0 8.0 0.00 0.00 0.00 70 1025.1